Location: Devore Heights
(34.2372°N, 117.4156°W)
Time: 18:14:59
(UTC+00:00)

S-56A Canister/Altair - Pass Details

Date: 14 September 2024
Orbit: 636 x 2487 km, 38.9° (Epoch: 14 October)

Event Time Altitude Azimuth Distance (km) Brightness Sun altitude
Rises 04:23:40 0° 274° (W) 3,543 11.9 -29.7°
Reaches altitude 10° 04:25:54 10° 277° (W) 2,776 11.2 -30.1°
Maximum altitude 04:32:39 64° 359° (N) 1,441 8.8 -31.3°
Enters shadow 04:35:08 48° 56° (NE) 1,818 9.1 -31.7°
Drops below altitude 10° 04:43:05 10° 80° (E) 4,179 - -33.1°
Sets 04:47:11 0° 83° (E) 5,452 - -33.9°
